Location: Home
(42.5358°N, 72.7383°W)
Time: 00:16:17
(UTC-05:00)

Vanguard 3 - Pass Details

Date: 30 November 2021
Orbit: 508 x 3260 km, 33.3° (Epoch: 21 January)

Event Time Altitude Azimuth Distance (km) Brightness Sun altitude
Rises 03:53:42 0° 227° (SW) 7,127 - -33.7°
Reaches altitude 10° 03:58:46 10° 222° (SW) 6,184 - -32.8°
Exits shadow 04:00:18 13° 220° (SW) 5,902 11.2 -32.5°
Maximum altitude 04:16:47 45° 158° (SSE) 3,637 10.4 -29.5°
Drops below altitude 10° 04:30:23 10° 92° (E) 4,776 12.1 -27.0°
Sets 04:33:41 0° 86° (E) 5,452 12.6 -26.4°
